Regional Weather Roundup
Issued by NWS

Home | Current Version | Previous Version | Graphics & Text | Print | Product List | Glossary On
Versions: 1 2 3 4 5 6 7 8 9 10 11 12 13 14 15 16 17 18 19 20 21 22 23 24 25 26 27 28 29 30 31 32 33 34 35 36 37 38 39 40 41 42 43 44 45 46 47 48 49 50
000
ASUS43 KLMK 201102
RWRKY
KENTUCKY REGIONAL WEATHER ROUNDUP
NATIONAL WEATHER SERVICE LOUISVILLE KY
700 AM EDT MON OCT 20 2014

NOTE "FAIR" INDICATES FEW OR NO CLOUDS BELOW 12,000 FEET
WITH NO SIGNIFICANT WEATHER AND/OR OBSTRUCTIONS TO VISIBILITY.

KYZ001>023-026-027-061>063-070>075-201200-
WESTERN AND SOUTH CENTRAL KENTUCKY

CITY           SKY/WX    TMP DP  RH WIND       PRES   REMARKS
PADUCAH        MOCLDY    51  46  83 SW6       30.03F
HENDERSON      CLOUDY    52  45  76 SW6       30.03S
OWENSBORO      MOCLDY    48  46  93 S6        30.03F
HOPKINSVILLE   CLOUDY    47  47 100 SE1       30.06F FOG
BOWLING GREEN  MOCLDY    46  43  89 CALM      30.08S
GLASGOW        NOT AVBL
$$

KYZ024-025-028>034-038-045-046-053-201200-
NORTH CENTRAL KENTUCKY

CITY           SKY/WX    TMP DP  RH WIND       PRES   REMARKS
LOUISVILLE/SDF CLOUDY    48  44  86 SE6       30.03F
LOUISVILLE/LOU CLOUDY    47  44  90 S3        30.04F
FORT KNOX      CLOUDY    46  43  92 S3        30.03S
$$

KYZ035>037-039>044-047>052-055>060-089>105-201200-
NORTHEAST KENTUCKY

CITY           SKY/WX    TMP DP  RH WIND       PRES   REMARKS
LEXINGTON      MOCLDY    49  42  77 S8        30.05S
COVINGTON      CLOUDY    47  42  83 S6        30.01S
FRANKFORT      CLOUDY    45  42  89 SW5       30.04S
$$

KYZ054-064>069-076>088-106>120-201200-
SOUTHEAST KENTUCKY

CITY           SKY/WX    TMP DP  RH WIND       PRES   REMARKS
JACKSON        MOCLDY    42  39  89 CALM      30.07R
LONDON         PTCLDY    42  38  85 CALM      30.08R
SOMERSET       MOCLDY    37  37 100 CALM      30.10R
MIDDLESBORO    PTCLDY    40  40  99 CALM      30.11R
MONTICELLO     SUNNY     38  38 100 CALM      30.10S FOG
$$




USA.gov is the U.S. government's official web portal to all federal, state and local government web resources and services.